Weather History for KCQW - April, 2013

Change the Weather History Date:

Tuesday, April 23, 2013

  Actual Average (KFLO) Record (KFLO)
Temperature  
Mean Temperature 55 °F 65 °F  
Max Temperature 64 °F 78 °F 93 °F (1980)
Min Temperature 46 °F 53 °F 35 °F (1986)
Degree Days  
Heating Degree Days 10 3  
Month to date heating degree days 107  
Since 1 July heating degree days 2483  
Cooling Degree Days 0 3  
Month to date cooling degree days 47  
Year to date cooling degree days 71  
Growing Degree Days 5 (Base 50)    
Moisture  
Dew Point 47 °F    
Average Humidity 81    
Maximum Humidity 100    
Minimum Humidity 59    
Precipitation  
Precipitation 0.00 in 0.10 in 1.40 in (1971)
Month to date precipitation 2.01  
Year to date precipitation 11.49  
Sea Level Pressure  
Sea Level Pressure 30.20 in    
Wind  
Wind Speed - (North)    
Max Wind Speed -    
Max Gust Speed -    
Visibility 9 miles    
Events      
T = Trace of Precipitation, MM = Missing Value Source: NWS Daily Summary

Daily Weather History Graph

Daily Weather History Graph

Search for Another Location

Airport or City:

Trip Planner

Search our weather history database for the weather conditions in past years. The results will help you decide how hot, cold, wet, or windy it might be!

Date:

Astronomy

Apr. 23, 2013 Rise Set
Actual Time 6:38 AM EDT 7:58 PM EDT
Civil Twilight 6:11 AM EDT 8:25 PM EDT
Nautical Twilight 5:40 AM EDT 8:56 PM EDT
Astronomical Twilight 5:07 AM EDT 9:29 PM EDT
Moon 5:55 PM EDT (4/23) 4:59 AM EDT (4/23)
Length of Visible Light 14h 13m
Length of Day
13h 20m
Waxing Gibbous, 94% of the Moon is Illuminated
Apr 23
Waxing Gibbous
Apr 25
Full
May 2
Last Quarter
May 9
New
May 18
First Quarter

Hourly Weather History & Observations

Time (EDT) Temp. Dew Point Humidity Pressure Visibility Wind Dir Wind Speed Gust Speed Precip Events Conditions
12:15 AM 53.6 °F 41.0 °F 62% 30.23 in 10.0 mi North - - N/A   Overcast
12:35 AM 53.6 °F 41.0 °F 62% 30.24 in 10.0 mi North - - N/A   Overcast
12:55 AM 53.6 °F 41.0 °F 62% 30.23 in 10.0 mi North - - N/A   Overcast
1:15 AM 53.6 °F 42.8 °F 67% 30.23 in 10.0 mi North - - N/A   Overcast
1:35 AM 53.6 °F 42.8 °F 67% 30.23 in 10.0 mi North - - N/A   Overcast
1:55 AM 53.6 °F 41.0 °F 62% 30.23 in 10.0 mi North - - N/A   Overcast
2:15 AM 53.6 °F 41.0 °F 62% 30.22 in 10.0 mi North - - N/A   Overcast
2:35 AM 51.8 °F 42.8 °F 71% 30.22 in 10.0 mi North - - N/A   Overcast
2:55 AM 51.8 °F 42.8 °F 71% 30.22 in 10.0 mi North - - N/A   Overcast
3:15 AM 50.0 °F 42.8 °F 76% 30.22 in 10.0 mi North - - N/A   Overcast
3:35 AM 50.0 °F 44.6 °F 82% 30.21 in 10.0 mi North - - N/A   Overcast
3:55 AM 50.0 °F 44.6 °F 82% 30.21 in 10.0 mi North - - N/A   Overcast
4:15 AM 50.0 °F 44.6 °F 82% 30.22 in 10.0 mi North - - N/A   Overcast
4:35 AM 48.2 °F 44.6 °F 87% 30.21 in 10.0 mi North - - N/A   Overcast
4:55 AM 48.2 °F 44.6 °F 87% 30.22 in 10.0 mi North - - N/A   Overcast
5:15 AM 48.2 °F 44.6 °F 87% 30.22 in 10.0 mi North - - N/A   Overcast
5:35 AM 48.2 °F 44.6 °F 87% 30.21 in 5.0 mi North - - N/A   Overcast
5:55 AM 48.2 °F 46.4 °F 93% 30.21 in 8.0 mi North - - N/A   Overcast
6:15 AM 46.4 °F 44.6 °F 93% 30.21 in 5.0 mi North - - N/A   Overcast
6:35 AM 46.4 °F 44.6 °F 93% 30.22 in 7.0 mi North - - N/A   Overcast
6:55 AM 46.4 °F 44.6 °F 93% 30.23 in 5.0 mi North - - N/A   Overcast
7:15 AM 46.4 °F 46.4 °F 100% 30.23 in 7.0 mi North - - N/A   Overcast
7:35 AM 46.4 °F 46.4 °F 100% 30.23 in 4.0 mi North - - N/A   Overcast
7:55 AM 46.4 °F 46.4 °F 100% 30.24 in 5.0 mi North - - N/A   Overcast
8:15 AM 46.4 °F 46.4 °F 100% 30.24 in 2.5 mi North - - N/A   Overcast
8:35 AM 48.2 °F 46.4 °F 93% 30.24 in 9.0 mi North - - N/A   Overcast
8:55 AM 48.2 °F 46.4 °F 93% 30.24 in 9.0 mi North - - N/A   Overcast
9:15 AM 48.2 °F 46.4 °F 93% 30.23 in 6.0 mi North - - N/A   Overcast
9:35 AM 48.2 °F 46.4 °F 93% 30.24 in 10.0 mi North - - N/A   Overcast
9:55 AM 48.2 °F 46.4 °F 93% 30.25 in 10.0 mi North - - N/A   Overcast
10:15 AM 50.0 °F 46.4 °F 87% 30.25 in 10.0 mi North - - N/A   Overcast
10:35 AM 50.0 °F 46.4 °F 87% 30.26 in 10.0 mi North - - N/A   Overcast
10:55 AM 50.0 °F 46.4 °F 87% 30.25 in 10.0 mi North - - N/A   Overcast
11:15 AM 51.8 °F 46.4 °F 82% 30.26 in 10.0 mi North - - N/A   Overcast
11:35 AM 51.8 °F 46.4 °F 82% 30.26 in 10.0 mi North - - N/A   Overcast
11:55 AM 50.0 °F 48.2 °F 94% 30.27 in 3.0 mi North - - N/A   Overcast
12:15 PM 50.0 °F 48.2 °F 94% 30.26 in 5.0 mi North - - N/A   Overcast
12:35 PM 53.6 °F 48.2 °F 82% 30.26 in 10.0 mi North - - N/A   Overcast
12:55 PM 53.6 °F 48.2 °F 82% 30.26 in 10.0 mi North - - N/A   Overcast
1:15 PM 55.4 °F 48.2 °F 77% 30.24 in 10.0 mi North - - N/A   Overcast
1:55 PM 57.2 °F 48.2 °F 72% 30.21 in 10.0 mi North - - N/A   Overcast
2:15 PM 57.2 °F 48.2 °F 72% 30.20 in 10.0 mi North - - N/A   Overcast
2:35 PM 57.2 °F 50.0 °F 77% 30.20 in 10.0 mi North - - N/A   Overcast
2:55 PM 57.2 °F 48.2 °F 72% 30.20 in 10.0 mi North - - N/A   Mostly Cloudy
3:15 PM 60.8 °F 50.0 °F 68% 30.19 in 10.0 mi North - - N/A   Mostly Cloudy
3:35 PM 60.8 °F 50.0 °F 68% 30.18 in 10.0 mi North - - N/A   Partly Cloudy
3:55 PM 62.6 °F 50.0 °F 63% 30.17 in 10.0 mi North - - N/A   Clear
4:15 PM 62.6 °F 50.0 °F 63% 30.16 in 10.0 mi North - - N/A   Clear
4:35 PM 64.4 °F 50.0 °F 59% 30.16 in 10.0 mi North - - N/A   Clear
4:55 PM 64.4 °F 50.0 °F 59% 30.16 in 10.0 mi North - - N/A   Clear
5:15 PM 64.4 °F 50.0 °F 59% 30.15 in 10.0 mi North - - N/A   Clear
5:35 PM 64.4 °F 50.0 °F 59% 30.15 in 10.0 mi North - - N/A   Clear
5:55 PM 64.4 °F 50.0 °F 59% 30.15 in 10.0 mi North - - N/A   Clear
6:15 PM 64.4 °F 50.0 °F 59% 30.13 in 10.0 mi North - - N/A   Clear
6:35 PM 64.4 °F 50.0 °F 59% 30.13 in 10.0 mi North - - N/A   Clear
6:55 PM 64.4 °F 50.0 °F 59% 30.13 in 10.0 mi North - - N/A   Clear
7:15 PM 62.6 °F 50.0 °F 63% 30.13 in 10.0 mi North - - N/A   Clear
7:35 PM 62.6 °F 50.0 °F 63% 30.13 in 10.0 mi North - - N/A   Clear
7:55 PM 59.0 °F 53.6 °F 82% 30.14 in 10.0 mi North - - N/A   Clear
8:15 PM 55.4 °F 53.6 °F 94% 30.14 in 9.0 mi North - - N/A   Clear
8:35 PM 55.4 °F 53.6 °F 94% 30.15 in 10.0 mi North - - N/A   Clear
8:55 PM 55.4 °F 51.8 °F 88% 30.16 in 10.0 mi North - - N/A   Clear
9:15 PM 55.4 °F 53.6 °F 94% 30.16 in 10.0 mi North - - N/A   Clear
9:35 PM 53.6 °F 51.8 °F 94% 30.16 in 10.0 mi North - - N/A   Clear
9:55 PM 53.6 °F 51.8 °F 94% 30.16 in 10.0 mi North - - N/A   Clear
10:15 PM 53.6 °F 51.8 °F 94% 30.16 in 10.0 mi North - - N/A   Clear
10:35 PM 51.8 °F 50.0 °F 94% 30.16 in 10.0 mi North - - N/A   Clear
10:55 PM 50.0 °F 50.0 °F 100% 30.16 in 3.0 mi North - - N/A   Clear
11:15 PM 50.0 °F 50.0 °F 100% 30.16 in 8.0 mi North - - N/A   Clear
11:35 PM 50.0 °F 50.0 °F 100% 30.16 in 6.0 mi North - - N/A   Clear
11:55 PM 50.0 °F 50.0 °F 100% 30.15 in 10.0 mi North - - N/A   Clear